Lid_Strength_Index
-1 1 6 6 10 11 14 12 10 10 10 10 9 10 10 10 10 13 4 2 0 0 -0 -0 -1 -1 -1 -1 -1 -1 -1 -2 -2 -1 -1 -1 -1 -1 -1 -1 -1 -1 -1 -1 -1 -1 -1 -1 -1
0 2 6 8 12 16 14 11 11 8 8 9 10 10 10 10 6 5 4 1 0 0 -0 -0 -1 -1 -1 -1 -1 -1 -2 -1 -1 -2 -1 -1 -1 -1 -1 -1 -1 -1 -1 -1 -1 -1 -1 -1 -1
2 4 9 10 12 15 14 10 9 7 9 10 11 9 10 10 6 4 3 1 0 0 -0 -0 -1 -1 -1 -1 -2 -1 -1 -1 -1 -2 -1 -1 -1 -1 -1 -1 -1 -1 -1 -0 -1 -0 -1 -0 -1
5 8 10 12 13 10 11 9 8 8 9 10 10 10 9 6 5 3 2 1 1 0 0 -1 -1 -1 -2 -2 -2 -1 -2 -1 -1 -1 -1 -1 -1 -1 -1 -1 -1 -1 -0 -0 0 -0 -0 -1 -0
7 10 13 14 13 11 10 9 6 8 9 9 10 10 9 5 3 2 2 1 2 1 0 -0 -1 -1 -1 -2 -2 -2 -2 -2 -1 -1 -1 -1 -1 -1 -1 -1 -1 -1 -0 -0 0 -0 -1 -0 -1
9 11 15 16 14 11 11 9 9 8 8 10 10 9 9 5 3 3 2 3 1 1 0 -0 -1 -1 -2 -2 -2 -2 -2 -2 -2 -2 -1 -1 -1 -1 -1 -1 -1 -1 -1 -1 -1 -0 -0 -1 -1
10 11 14 15 13 12 11 8 9 8 9 10 9 9 7 5 3 2 3 3 1 0 0 0 -0 -0 -1 -1 -2 -2 -2 -2 -2 -2 -1 -2 -2 -1 -1 -1 -1 -1 -1 -1 -1 -0 -0 -0 -1
9 11 13 15 13 12 10 8 8 9 9 9 8 9 8 6 3 3 3 3 2 1 0 0 0 0 0 0 -1 -1 -2 -2 -2 -2 -2 -1 -1 -2 -2 -1 -1 -1 -1 -1 -1 -0 0 0 -0
8 12 14 13 12 11 8 9 8 7 9 9 7 8 6 5 3 4 4 4 3 2 1 1 1 1 1 0 -0 -1 -1 -2 -2 -1 -1 -1 0 0 -0 -1 -1 -1 -1 -1 -1 -0 1 0 -0
10 13 11 9 10 9 8 9 9 8 9 10 7 5 4 3 4 4 5 4 4 4 3 1 1 1 1 0 1 0 0 0 1 0 1 1 1 1 -0 -0 -1 -1 -1 -1 -1 -1 0 0 3
10 12 9 7 7 7 8 8 8 9 9 8 9 6 5 5 4 4 4 4 3 3 3 2 2 1 1 1 1 1 1 1 1 1 1 1 1 2 2 1 1 0 0 1 -0 2 3 4 5
10 9 8 6 6 7 8 7 8 9 8 7 7 7 4 5 4 4 4 4 4 4 3 3 2 2 2 2 1 1 1 1 1 1 1 2 2 3 3 2 2 2 2 2 3 3 4 5 5
9 8 8 6 7 8 8 9 8 9 8 8 7 5 5 5 4 4 3 3 3 4 3 3 3 2 2 4 2 2 2 1 1 1 1 1 2 3 3 3 2 2 2 3 3 3 3 4 5
8 9 9 8 8 8 8 9 9 8 8 8 7 6 5 5 4 4 4 3 4 4 3 2 2 2 2 3 3 2 2 2 2 1 1 2 1 2 3 3 2 2 2 3 2 3 3 4 5
8 10 10 9 8 9 9 10 10 8 9 9 8 8 7 5 5 4 4 4 3 3 4 2 2 2 2 2 3 3 2 2 2 1 2 2 2 2 2 3 3 3 4 3 4 4 5 5 5
11 12 14 10 9 9 9 13 9 8 10 9 8 10 9 9 8 8 8 7 5 4 4 3 1 1 2 2 2 3 4 4 3 2 2 2 2 2 3 3 3 3 4 4 4 4 5 5 5
13 15 15 12 9 10 10 12 9 9 10 10 11 11 10 9 8 8 7 7 7 7 5 4 3 2 1 1 1 2 4 4 4 4 4 3 2 2 3 3 3 3 4 4 4 4 4 4 4
15 15 15 14 11 11 12 12 10 11 11 12 12 11 10 9 9 8 7 7 7 7 7 6 4 3 2 2 2 3 3 3 4 4 4 4 4 3 3 3 3 3 4 4 4 4 4 4 3
13 14 15 13 10 12 12 13 11 11 11 11 12 11 10 10 9 8 8 7 7 7 6 6 5 5 3 3 3 3 2 3 3 3 3 3 4 4 4 3 3 4 4 3 4 4 4 4 5
13 14 15 13 10 12 13 13 11 12 12 11 10 11 10 10 9 8 8 8 8 8 7 6 5 5 4 2 3 2 3 3 2 2 2 3 3 3 3 4 3 3 4 3 3 4 5 4 5
13 14 14 13 11 11 13 14 14 12 11 11 11 10 10 9 9 9 8 8 8 8 7 6 6 5 5 3 2 3 3 3 3 3 3 2 2 2 2 2 3 3 3 3 3 3 4 4 3
15 12 12 13 14 16 14 18 16 13 12 12 12 11 10 9 9 9 8 8 8 7 7 6 6 6 6 5 5 5 5 5 4 3 2 2 2 2 1 1 1 2 2 3 3 3 3 3 4
13 10 12 13 14 16 16 17 15 13 13 12 12 11 11 10 9 8 7 6 7 7 7 7 7 6 7 7 7 7 8 6 6 5 6 5 4 3 2 1 1 1 1 1 2 2 2 2 2
10 12 14 15 14 17 15 15 16 14 12 12 11 11 10 9 8 7 7 6 7 7 7 7 7 8 8 8 8 8 9 8 8 8 7 6 5 4 4 4 3 1 1 1 1 1 1 1 2
13 15 18 18 18 18 15 17 14 13 11 9 10 10 10 9 8 8 8 8 8 8 9 8 8 8 8 8 8 8 8 8 8 8 7 7 7 6 6 6 6 6 5 4 2 1 1 1 2
14 14 17 21 20 18 15 17 14 12 10 9 9 9 10 9 9 9 9 9 9 8 8 8 8 8 7 7 7 7 7 7 7 7 7 7 7 6 6 6 6 6 5 5 5 5 4 3 2
14 15 12 15 17 17 16 14 13 11 11 10 10 10 10 9 9 9 9 9 8 9 9 8 8 8 7 7 7 7 7 7 6 6 6 6 6 5 5 5 6 5 5 5 5 5 5 5 4
13 11 15 15 19 20 17 17 15 14 12 11 10 11 11 11 10 9 9 8 9 9 9 8 8 8 7 7 7 7 7 7 7 7 7 7 7 7 7 6 6 6 5 5 5 5 5 5 4
13 14 14 14 16 18 19 17 13 13 12 11 11 11 11 11 10 9 9 9 9 9 8 8 8 8 8 7 8 8 7 8 8 8 8 8 8 8 8 7 7 7 6 6 6 6 5 5 5
12 12 14 16 17 17 18 16 13 13 13 12 11 10 10 10 9 9 9 9 9 9 9 9 9 9 9 9 9 9 9 9 10 10 10 9 10 9 9 8 8 8 8 7 6 6 6 6 7